Regional Weather Roundup
Issued by NWS

Home | Current Version | Previous Version | Text Only | Print | Product List | Glossary Off
Versions: 1 2 3 4 5 6 7 8 9 10 11 12 13 14 15 16 17 18 19 20 21 22 23 24 25 26 27 28 29 30 31 32 33 34 35 36 37 38 39 40 41 42 43 44 45 46 47 48 49 50

000
ASUS43 KOAX 050502
RWRNE

WEATHER ROUNDUP FOR NEBRASKA
NATIONAL WEATHER SERVICE OMAHA NE
1100 PM CST WED MAR 04 2015

NOTES: SATELLITE DATA IS BEING USED TO AUGMENT CLOUD COVER ABOVE
       12000 FEET.
       "FAIR" INDICATES FEW OR NO CLOUDS BELOW 12,000 FEET WITH NO
       SIGNIFICANT WEATHER AND/OR OBSTRUCTIONS TO VISIBILITY.

  * THESE STATIONS DO NOT REPORT WEATHER SUCH AS RAIN...SNOW OR FOG.

NEZ001>004-019>022-054>056-050600-
NEBRASKA PANHANDLE

CITY           SKY/WX    TMP DP  RH WIND       PRES   REMARKS
SCOTTSBLUFF    CLEAR     11   3  70 CALM      30.24R
ALLIANCE       CLEAR      6   0  76 CALM      30.23R
CHADRON        MOCLDY    -1  -5  82 S6        30.27R WCI -13
KIMBALL        CLEAR     11   5  77 W9        30.20R WCI  -1
SIDNEY         CLEAR      6   0  76 SW9       30.24R WCI  -8
$$

NEZ057>060-069>072-079>082-050600-
SOUTHWEST NEBRASKA

CITY           SKY/WX    TMP DP  RH WIND       PRES   REMARKS
NORTH PLATTE   CLEAR      8  -1  66 SE5       30.34R WCI   0
IMPERIAL         N/A     18   7  62 W3        30.31R
LEXINGTON      CLEAR      9   3  78 CALM      30.38R
MCCOOK         MOCLDY    17   6  62 CALM      30.35R
$$

NEZ005>010-023>029-035>040-094-050600-
NORTH CENTRAL NEBRASKA

CITY           SKY/WX    TMP DP  RH WIND       PRES   REMARKS
VALENTINE      PTCLDY     1  -4  79 SW5       30.34R WCI  -9
AINSWORTH      CLEAR      3  -3  79 CALM      30.35R
BROKEN BOW     CLEAR      2  -5  72 CALM      30.36R
ORD            CLEAR      4  -5  66 CALM      30.40R
$$

NEZ041-046>049-061>064-073>077-083>087-050600-
SOUTH CENTRAL NEBRASKA

CITY           SKY/WX    TMP DP  RH WIND       PRES   REMARKS
GRAND ISLAND   CLEAR      5  -2  72 NE7       30.42R WCI  -7
AURORA         CLEAR      8  -1  67 N5        30.42R WCI  -1
HASTINGS       FAIR       9   0  67 NE5       30.40R WCI   1
HEBRON         CLEAR     14   2  58 NE3       30.45R
KEARNEY *      CLEAR      9   0  66 NE7       30.40R WCI  -3
$$

NEZ011>018-030>034-042>045-050600-
NORTHEAST NEBRASKA

CITY           SKY/WX    TMP DP  RH WIND       PRES   REMARKS
NORFOLK        CLEAR      5  -5  63 CALM      30.43R
ALBION         CLEAR      4  -5  67 CALM      30.42R
BLAIR          CLEAR     10  -3  55 N6        30.45R WCI   0
COLUMBUS *     CLEAR      7  -9  47 CALM      30.45S
FREMONT        FAIR      10  -3  56 CALM      30.48R
TEKAMAH        CLEAR      6  -4  63 N6        30.50R WCI  -4
$$

NEZ050>053-065>068-078-088>093-050600-
SOUTHEAST NEBRASKA

CITY           SKY/WX    TMP DP  RH WIND       PRES   REMARKS
LINCOLN        CLEAR      8  -3  61 N8        30.48R WCI  -4
OMAHA EPPLEY   CLEAR      9  -1  64 N7        30.49R WCI  -2
BEATRICE       CLEAR     15   1  54 NE9       30.45R WCI   3
FALLS CITY     CLEAR     15   0  51 N6        30.46R WCI   6
NEBRASKA CITY  CLEAR     13  -2  51 NE9       30.46S WCI   1
$$

NEZ044-045-051>053-067-050600-
OMAHA AREA

CITY           SKY/WX    TMP DP  RH WIND       PRES   REMARKS
OMAHA EPPLEY   CLEAR      9  -1  64 N7        30.49R WCI  -2
BLAIR          CLEAR     10  -3  55 N6        30.45R WCI   0
FREMONT        FAIR      10  -3  56 CALM      30.48R
OFFUTT AFB     CLEAR     11  -1  57 NE6       30.47R WCI   2
WAHOO          FAIR       8  -3  61 N6        30.48R WCI  -2
$$


USA.gov is the U.S. government's official web portal to all federal, state and local government web resources and services.